Retour au catalogue

COSMOS 506

ActifMilitaireLEO
NORAD 6119·PAYLOAD·🇷🇺 Russia

Lancé Jul 20, 1972 depuis Plesetsk Cosmodrome

Loading…

Prochains Passages (prochaines 24 heures)

TLE

FraisSource: Space-Track

Époque: Sep 14, 2026, 12:17 UTC

1 06119U 72057C   26257.51245471 -.00000015  00000-0  97647-5 0  9994
2 06119  74.0244 272.1715 0073742 272.0589 161.3304 12.56208574483239

Suivez COSMOS 506 en temps réel avec AllMySat

Download on the App Store